Regional Weather Roundup
Issued by NWS

Home | Current Version | Previous Version | Graphics & Text | Print | Product List | Glossary On
Versions: 1 2 3 4 5 6 7 8 9 10 11 12 13 14 15 16 17 18 19 20 21 22 23 24 25 26 27 28 29 30 31 32 33 34 35 36 37 38 39 40 41 42 43 44 45 46 47 48 49 50
000
ASUS43 KBIS 061502
RWRND

NORTH DAKOTA REGIONAL WEATHER ROUNDUP
NATIONAL WEATHER SERVICE BISMARCK ND
1000 AM CDT MON JUL 06 2015

NOTE: "FAIR" INDICATES FEW OR NO CLOUDS BELOW 12,000 FEET WITH NO
SIGNIFICANT WEATHER AND/OR OBSTRUCTIONS TO VISIBILITY.


NDZ001>003-009>011-017-061600-
NORTHWEST NORTH DAKOTA

CITY           SKY/WX    TMP DP  RH WIND       PRES   REMARKS
WILLISTON      PTSUNNY   62  51  67 NE6       30.19S HAZE
MINOT          CLOUDY    59  50  72 N5        30.16R SMOKE
$$

NDZ018>021-031>035-040>046-061600-
SOUTHWEST NORTH DAKOTA

CITY           SKY/WX    TMP DP  RH WIND       PRES   REMARKS
BISMARCK       CLOUDY    65  56  72 NW6       30.15R HAZE
DICKINSON      PTSUNNY   61  50  67 N7        30.17S
GARRISON         N/A     62  51  67 CALM      30.15S
HETTINGER ARPT MOSUNNY   64  50  60 N6        30.20R
$$

NDZ004>008-012>016-024-026-027-054-061600-
NORTHEAST NORTH DAKOTA

CITY           SKY/WX    TMP DP  RH WIND       PRES   REMARKS
GRAND FORKS    PTSUNNY   59  47  64 N20       30.09R
GRND FRKS AFB  PTSUNNY   59  46  62 NE16      30.10R
DEVILS LAKE    CLOUDY    57  48  72 N6        30.12R
$$

NDZ022-023-025-028>030-036>039-047>053-061600-
SOUTHEAST NORTH DAKOTA

CITY           SKY/WX    TMP DP  RH WIND       PRES   REMARKS
FARGO          MOSUNNY   62  49  62 N17G30    30.05R
JAMESTOWN      PTSUNNY   61  51  70 N10       30.11R
$$



USA.gov is the U.S. government's official web portal to all federal, state and local government web resources and services.